Wind_Speed
3 4 5 6 7 8 8 9 10 11 11 12 12 12 13 13 13 14 14 14 14 14 15 15 16 16 17 18 18 18 19 19 19 20 20 20 20 20 19 19 19 19 20
6 7 7 8 9 10 10 11 11 12 12 13 13 13 14 14 14 14 15 15 15 15 16 17 17 18 18 19 20 20 21 21 21 22 22 22 23 23 23 23 22 23 23
8 9 9 10 11 11 11 12 12 13 13 14 14 14 14 14 14 14 15 15 16 17 17 18 19 19 20 21 21 22 23 23 23 24 24 24 25 25 25 25 25 25 26
9 10 11 11 11 12 12 12 13 13 13 14 14 14 14 14 14 15 16 16 17 18 19 20 20 21 22 22 23 23 24 25 25 26 26 26 27 27 27 28 28 28 29
10 11 11 11 12 12 12 12 12 13 13 13 13 14 14 14 15 16 17 17 18 19 20 21 21 22 23 23 24 25 25 26 27 27 28 29 29 29 30 30 31 31 32
10 11 11 11 11 12 12 12 12 12 13 13 13 14 14 15 16 16 17 18 19 19 20 21 22 22 23 24 25 25 26 27 28 29 29 30 31 31 32 33 33 34 34
11 11 11 11 11 11 12 12 12 12 13 13 13 14 14 15 16 16 17 18 19 20 20 21 22 23 23 24 25 26 27 27 28 29 30 31 32 33 34 35 35 36 37
11 11 12 11 11 11 12 12 12 12 13 13 14 14 15 15 16 17 18 19 20 20 21 22 23 24 24 25 26 27 28 28 29 30 31 32 33 34 35 36 37 38 39
12 11 12 12 12 12 12 12 13 13 13 14 14 15 16 16 17 18 19 20 21 21 22 23 24 25 26 27 27 28 29 30 31 32 33 33 34 35 35 36 37 38 39
13 12 12 12 12 12 12 13 13 13 13 14 15 15 16 17 18 19 20 21 22 22 23 24 25 26 27 28 29 30 31 31 32 33 34 35 36 37 37 38 39 39 40
13 13 12 13 13 13 13 13 13 14 14 14 15 16 16 17 18 19 20 21 22 23 24 25 26 27 28 29 30 31 32 33 34 35 36 37 38 39 39 40 41 41 42
15 14 14 14 14 14 14 14 15 15 15 15 16 16 17 18 19 20 21 22 23 24 25 26 27 28 29 31 32 33 33 34 35 36 38 39 40 41 41 42 43 43 44
16 16 16 16 16 16 16 16 17 17 17 17 18 18 19 20 21 22 23 24 25 26 27 28 30 31 32 33 34 35 36 37 37 38 39 40 41 42 43 44 45 46 46
18 19 18 18 18 18 18 18 19 19 19 20 20 21 22 23 23 24 25 27 28 29 30 31 33 34 35 36 37 38 39 40 40 41 42 42 43 44 45 46 47 48 48
21 21 21 21 21 21 21 21 21 22 22 23 24 24 25 26 27 28 29 30 31 32 33 35 36 37 38 39 40 41 42 43 44 44 45 45 45 46 47 48 49 49 50
23 23 24 24 24 24 24 25 25 25 26 27 28 28 29 30 30 31 32 33 35 36 37 38 39 41 41 42 44 44 46 46 47 47 47 48 48 48 49 49 50 51 52
25 26 26 27 27 27 27 28 28 28 29 30 31 32 33 33 34 35 36 37 38 40 41 42 43 44 45 46 47 48 49 50 50 50 50 50 51 51 51 51 51 52 53
27 27 28 29 30 30 31 31 31 31 32 33 34 35 36 37 38 39 39 40 42 43 44 46 47 48 49 50 51 51 52 53 54 54 53 53 53 53 53 53 54 54 55
29 29 30 30 32 33 34 34 34 34 35 36 37 37 39 40 41 42 43 44 45 46 48 49 50 51 52 53 54 54 55 56 56 56 56 56 56 56 56 56 56 56 57
30 31 32 33 34 36 36 37 37 38 38 39 39 40 42 44 45 46 47 48 49 50 51 53 53 54 55 56 57 57 57 58 58 58 58 59 58 58 58 58 58 59 59
31 32 33 35 36 38 38 39 40 40 41 41 42 43 45 47 48 49 50 51 53 54 54 56 57 57 58 59 60 59 59 60 60 60 60 60 60 60 60 60 61 61 61
32 33 35 36 37 39 40 41 42 43 43 44 45 47 49 50 52 53 54 55 56 57 58 59 60 60 61 61 62 62 61 61 61 60 61 61 62 62 62 62 63 63 63
32 34 36 37 38 39 41 43 44 45 46 47 49 51 52 53 55 56 57 59 60 60 61 62 63 63 63 63 63 64 64 63 62 61 60 61 62 62 63 64 64 64 64
33 35 36 38 39 40 42 44 46 47 48 49 52 53 54 56 58 59 61 62 63 63 64 64 65 65 65 65 65 64 65 64 64 63 61 61 62 63 63 64 64 64 65
34 35 37 39 40 42 44 45 47 49 50 52 54 55 57 58 60 61 63 64 65 66 66 66 66 66 66 66 66 65 65 65 65 64 63 63 63 63 64 64 64 65 65
35 36 38 40 42 44 46 48 50 51 53 55 56 58 60 61 62 63 64 65 67 67 68 68 68 68 68 67 67 66 65 66 65 65 65 64 64 63 64 64 64 65 66
Wind_Direction
287 283 282 282 280 279 279 278 279 280 281 281 282 282 282 282 282 283 284 284 284 284 283 283 282 282 282 282 281 279 278 277 275 274 274 273 272 270 268 265 263 262 260
283 282 282 281 280 280 280 281 281 281 282 283 283 283 284 284 285 285 286 286 286 285 285 285 284 283 282 282 281 280 279 277 276 274 273 272 271 269 268 266 264 262 261
282 281 281 281 281 281 282 282 282 283 284 285 285 286 286 287 287 287 287 287 286 287 286 286 285 284 283 282 281 281 280 278 277 275 274 272 271 269 268 266 265 263 262
282 282 283 282 283 283 284 284 284 286 287 288 288 289 290 290 291 291 290 289 289 289 288 288 287 286 284 283 282 281 280 280 279 277 275 274 272 270 269 267 265 264 262
281 281 282 283 284 285 285 286 287 289 290 291 292 292 293 294 294 294 293 292 292 291 291 290 288 287 286 285 284 282 282 281 280 279 277 276 274 272 271 269 268 266 264
279 280 282 284 285 285 286 288 289 291 292 294 295 296 297 298 298 297 296 296 296 295 294 293 292 290 289 288 287 285 284 283 282 280 279 278 276 274 273 271 270 268 267
280 281 282 284 285 286 287 289 291 293 295 297 298 299 300 300 300 301 300 300 300 299 298 297 295 294 293 291 290 289 287 286 284 283 281 280 278 276 275 274 272 270 268
279 280 282 284 285 286 288 290 292 294 296 298 300 301 301 302 302 303 303 303 302 301 300 299 297 296 294 293 292 290 289 288 286 284 283 281 280 278 276 275 274 272 271
278 279 282 284 286 287 289 292 294 295 297 299 301 302 303 303 303 303 304 304 304 304 303 301 300 298 296 294 293 291 289 288 286 285 283 282 281 279 278 276 275 273 272
276 277 280 284 286 288 290 293 295 297 298 300 302 303 304 304 305 306 306 306 306 306 305 304 302 300 298 297 295 293 291 289 287 285 283 282 281 279 278 276 275 273 272
276 277 277 281 284 286 289 291 294 296 299 300 302 303 305 306 307 307 308 308 308 307 307 306 305 304 302 300 298 296 293 291 288 286 284 282 281 279 278 276 274 273 272
275 276 276 278 280 283 286 289 291 294 296 298 299 301 303 304 305 306 307 308 308 308 309 308 307 307 305 304 302 299 297 294 291 289 286 284 282 280 278 276 275 273 272
275 275 276 277 278 280 283 286 287 289 292 293 295 297 299 300 302 303 304 305 306 307 308 308 308 307 306 305 303 302 299 297 294 291 289 286 284 281 279 277 276 274 273
273 273 275 277 277 278 280 282 284 287 289 291 292 294 295 297 298 299 301 302 303 304 305 306 306 306 306 305 304 303 301 299 297 294 292 288 285 283 281 278 276 275 273
271 272 273 275 276 278 279 280 282 284 286 288 289 290 292 293 295 296 298 299 301 302 302 303 304 304 304 304 303 303 302 300 298 296 293 291 288 285 283 280 278 276 275
270 271 272 273 275 277 278 280 281 282 284 285 287 288 290 291 292 294 295 297 298 299 300 301 302 303 303 303 302 302 302 301 299 297 295 292 289 287 285 283 281 279 277
272 272 272 273 275 277 278 279 280 281 283 284 285 287 288 289 291 292 293 295 296 297 298 299 300 301 302 302 301 301 301 301 300 298 296 294 291 289 287 285 283 281 280
274 274 273 274 275 276 277 278 280 281 282 283 284 286 287 288 289 290 292 293 295 296 297 298 299 300 300 300 300 300 300 300 299 298 296 294 292 290 289 287 285 284 283
278 276 275 274 274 275 276 278 279 280 281 282 284 285 286 287 288 289 291 292 293 294 295 296 297 298 298 298 299 299 299 299 298 297 296 295 293 291 290 288 287 286 285
280 278 276 275 274 275 277 278 279 280 280 282 284 284 284 286 287 288 290 291 292 293 294 295 296 296 297 297 298 297 297 298 297 296 295 294 293 292 291 289 288 287 286
282 280 278 277 276 277 278 279 279 280 281 282 283 283 284 285 287 288 289 290 291 292 293 293 294 295 296 296 297 296 296 297 297 296 295 294 293 292 291 290 289 288 286
285 283 281 280 279 280 280 280 281 281 282 283 283 283 284 285 287 288 289 289 290 291 291 292 293 293 294 295 295 295 296 295 295 294 294 293 292 292 291 290 289 288 287
287 285 284 283 282 281 281 282 282 282 283 283 283 283 285 286 287 288 288 289 289 290 291 291 292 293 293 294 294 295 295 295 294 293 292 292 291 291 290 290 289 289 288
290 288 286 285 284 283 283 283 283 284 284 284 283 284 285 285 286 287 288 288 288 289 290 290 291 292 292 293 294 295 295 295 294 293 292 292 291 291 290 290 289 289 289
291 289 288 287 286 285 284 284 284 284 284 284 284 285 285 285 286 286 287 287 288 288 289 290 290 291 292 293 294 294 294 294 294 293 292 292 292 291 291 290 290 289 289
294 292 290 289 288 287 286 286 285 285 284 284 285 285 285 285 286 286 287 287 288 288 289 289 290 291 292 292 293 293 294 294 294 293 293 292 292 291 291 291 291 290 290
Height
5863 5863 5864 5864 5864 5864 5864 5864 5864 5864 5863 5863 5863 5862 5862 5862 5862 5862 5861 5861 5861 5861 5861 5862 5862 5862 5862 5862 5862 5863 5863 5863 5864 5865 5865 5866 5867 5867 5868 5870 5871 5871 5872
5862 5862 5862 5862 5862 5862 5862 5862 5862 5861 5861 5861 5860 5860 5860 5859 5859 5859 5859 5858 5858 5859 5859 5859 5859 5859 5859 5859 5859 5859 5859 5859 5860 5861 5861 5862 5863 5863 5864 5865 5866 5867 5868
5861 5861 5861 5860 5860 5860 5860 5860 5859 5859 5859 5858 5858 5857 5857 5857 5856 5856 5856 5856 5855 5855 5855 5855 5855 5855 5855 5855 5855 5855 5855 5855 5856 5856 5857 5857 5858 5859 5859 5860 5861 5862 5863
5859 5859 5859 5859 5858 5858 5858 5857 5857 5857 5856 5856 5855 5855 5854 5854 5853 5853 5853 5853 5852 5852 5852 5852 5851 5851 5851 5851 5850 5850 5850 5850 5851 5851 5852 5852 5853 5853 5854 5854 5855 5857 5858
5857 5857 5857 5856 5856 5856 5855 5855 5854 5854 5853 5853 5852 5852 5851 5851 5851 5850 5850 5849 5849 5849 5848 5848 5847 5847 5847 5846 5846 5846 5845 5845 5845 5846 5846 5846 5847 5847 5848 5848 5849 5850 5851
5855 5855 5854 5854 5854 5853 5853 5852 5852 5851 5851 5850 5850 5849 5848 5848 5847 5847 5846 5846 5845 5845 5844 5844 5843 5842 5842 5841 5841 5841 5840 5840 5840 5840 5840 5840 5840 5841 5841 5842 5842 5843 5844
5853 5852 5852 5852 5851 5851 5850 5850 5849 5849 5848 5847 5847 5846 5845 5845 5844 5844 5843 5842 5842 5841 5840 5839 5839 5838 5837 5837 5836 5835 5835 5835 5834 5834 5834 5833 5834 5834 5834 5834 5835 5835 5836
5850 5850 5849 5849 5849 5848 5848 5847 5846 5846 5845 5844 5844 5843 5842 5842 5841 5840 5839 5839 5838 5837 5836 5835 5834 5833 5832 5831 5831 5830 5829 5829 5828 5828 5827 5827 5827 5827 5827 5827 5827 5827 5828
5848 5848 5847 5847 5846 5846 5845 5844 5844 5843 5842 5841 5841 5840 5839 5838 5837 5837 5836 5835 5834 5833 5832 5831 5830 5828 5827 5826 5825 5824 5823 5823 5822 5821 5821 5820 5819 5819 5819 5819 5819 5819 5819
5845 5845 5845 5844 5843 5843 5842 5841 5841 5840 5839 5838 5838 5837 5836 5835 5834 5833 5832 5831 5829 5828 5827 5826 5825 5823 5822 5821 5819 5818 5817 5816 5815 5814 5813 5812 5812 5811 5811 5810 5810 5810 5810
5842 5842 5842 5841 5840 5840 5839 5838 5838 5837 5836 5835 5834 5833 5832 5831 5830 5829 5828 5826 5825 5824 5822 5821 5819 5818 5816 5815 5813 5812 5810 5809 5808 5806 5805 5804 5803 5802 5802 5801 5801 5801 5801
5839 5839 5839 5838 5838 5837 5836 5835 5834 5833 5833 5832 5831 5830 5829 5827 5826 5825 5823 5822 5820 5819 5817 5816 5814 5812 5810 5808 5806 5805 5803 5801 5800 5798 5797 5795 5794 5793 5792 5791 5791 5790 5790
5836 5835 5835 5835 5834 5833 5833 5832 5831 5830 5829 5828 5827 5826 5824 5823 5822 5820 5819 5817 5815 5814 5812 5810 5808 5806 5804 5802 5800 5797 5795 5793 5791 5790 5788 5786 5784 5783 5782 5781 5780 5779 5779
5832 5831 5831 5831 5830 5829 5829 5828 5827 5826 5824 5823 5822 5821 5819 5818 5817 5815 5814 5812 5810 5808 5806 5803 5801 5799 5797 5794 5792 5790 5787 5785 5782 5780 5778 5776 5774 5772 5771 5770 5768 5768 5767
5828 5827 5826 5826 5825 5825 5824 5823 5822 5821 5820 5818 5817 5815 5814 5812 5811 5809 5807 5805 5803 5801 5799 5796 5794 5791 5789 5786 5783 5781 5778 5775 5773 5770 5767 5765 5763 5761 5759 5757 5756 5755 5754
5823 5822 5822 5821 5820 5819 5819 5817 5816 5815 5814 5812 5810 5809 5807 5806 5804 5802 5800 5798 5795 5793 5791 5788 5785 5782 5780 5777 5774 5771 5768 5765 5762 5759 5756 5753 5751 5748 5746 5744 5743 5741 5740
5818 5817 5817 5815 5814 5813 5812 5811 5810 5809 5807 5806 5804 5802 5800 5798 5796 5794 5792 5789 5787 5784 5781 5778 5776 5773 5770 5766 5763 5760 5757 5753 5750 5747 5744 5741 5738 5735 5733 5731 5729 5727 5725
5813 5812 5811 5810 5808 5807 5806 5804 5803 5802 5800 5798 5796 5794 5792 5789 5787 5785 5783 5780 5777 5775 5771 5768 5765 5762 5759 5755 5752 5748 5745 5741 5737 5734 5731 5727 5724 5722 5719 5716 5714 5712 5710
5806 5805 5805 5803 5801 5800 5798 5797 5796 5794 5792 5790 5788 5786 5783 5780 5778 5776 5773 5770 5767 5764 5761 5757 5754 5751 5747 5743 5740 5736 5732 5729 5725 5721 5717 5713 5710 5707 5704 5701 5699 5696 5694
5799 5798 5797 5796 5794 5792 5791 5789 5787 5786 5784 5782 5779 5777 5774 5771 5768 5765 5763 5759 5756 5753 5749 5745 5742 5738 5735 5731 5727 5724 5720 5715 5711 5707 5703 5699 5695 5692 5689 5686 5683 5680 5677
5792 5791 5789 5788 5786 5784 5783 5781 5779 5777 5775 5773 5770 5767 5763 5760 5757 5754 5751 5748 5744 5741 5737 5733 5729 5726 5722 5717 5713 5710 5706 5702 5698 5693 5688 5684 5680 5677 5673 5670 5667 5664 5661
5785 5783 5782 5780 5778 5776 5774 5772 5770 5768 5766 5763 5760 5756 5753 5749 5746 5743 5739 5735 5732 5728 5724 5720 5716 5712 5708 5703 5699 5694 5692 5689 5684 5680 5675 5669 5665 5661 5657 5653 5650 5647 5643
5778 5776 5774 5772 5770 5768 5765 5763 5760 5758 5755 5753 5749 5745 5742 5738 5734 5730 5726 5722 5718 5714 5710 5706 5701 5697 5693 5689 5684 5679 5675 5672 5668 5666 5661 5655 5650 5645 5641 5637 5633 5629 5625
5770 5768 5766 5763 5761 5758 5755 5753 5750 5747 5745 5741 5737 5734 5730 5725 5721 5717 5713 5708 5704 5700 5696 5691 5686 5682 5677 5673 5669 5665 5660 5654 5650 5647 5645 5640 5634 5630 5625 5620 5616 5611 5607
5763 5760 5757 5754 5751 5748 5746 5742 5739 5736 5733 5728 5724 5721 5717 5712 5708 5703 5698 5693 5689 5684 5680 5675 5671 5666 5662 5657 5652 5648 5644 5638 5633 5629 5626 5623 5618 5613 5608 5603 5598 5594 5589
5755 5751 5748 5745 5742 5738 5735 5731 5727 5723 5719 5715 5711 5707 5702 5698 5694 5689 5683 5678 5673 5668 5664 5659 5654 5650 5645 5641 5636 5631 5627 5622 5617 5611 5608 5605 5600 5596 5590 5586 5581 5575 5570